Location: Cluny
(50.9333°N, 112.8167°W)
Time: 19:55:47
(UTC-06:00)

Amateur Radio Satellites - All Passes

Search period start: 28 May 2016 19:25
Search period end: 29 May 2016 19:25
Location: Cluny, 50.9333°N, 112.8167°W

Satellite Date Start Highest point End Downlink Frequencies (MHz)
Time Altitude Azimuth
PCSat 28 May 19:26:31 19:31:54 63° 239° (WSW) 19:37:15 145.827
RS-15 28 May 19:28:21 19:39:55 83° 313° (NW) 19:52:10 29.354- 29.394
AUBIESAT-1 28 May 19:28:22 19:31:55 32° 61° (ENE) 19:35:15 437.475
HO-68 28 May 19:32:26 19:39:05 44° 59° (ENE) 19:45:45 435.675
Cosmos 2504 28 May 19:34:51 19:41:59 53° 289° (WNW) 19:49:37 435.465 / 435.565
M-CUBED/EXP-1 PRIME 28 May 19:35:48 19:39:39 46° 64° (ENE) 19:43:15 437.505
BEESAT 3 28 May 19:38:53 19:42:44 46° 42° (NE) 19:46:33 437.485
CINEMA 3 28 May 19:40:10 19:44:06 28° 65° (ENE) 19:47:54 145.822/145.860
LilacSat-2 28 May 19:40:37 19:43:55 28° 265° (W) 19:47:12 437.200
NOAA 15 28 May 19:41:22 19:45:50 27° 267° (W) 19:50:20 137.62
CUTE 1.7 + AOD 2 28 May 19:45:25 19:48:59 27° 64° (ENE) 19:52:34 437.475
AIST 2 28 May 19:48:11 19:50:19 14° 12° (NNE) 19:52:27 435.215
Cubesat XI-IV 28 May 19:50:10 19:54:53 32° 265° (W) 19:59:38 437.490
BRITE-PL 28 May 19:53:59 19:58:56 30° 268° (W) 20:03:54 437.365/2234.400
NOAA 18 28 May 19:58:57 20:03:15 23° 268° (W) 20:07:35 137.9125
COMPASS 1 28 May 20:02:53 20:06:09 23° 63° (ENE) 20:09:28 437.405
AAUSAT CUBESAT 2 28 May 20:04:29 20:07:31 20° 61° (ENE) 20:10:34 437.432
GOMX 1 28 May 20:12:18 20:17:19 36° 265° (W) 20:22:12 467.674
ZACube-1 28 May 20:13:42 20:14:48 11° 55° (NE) 20:15:55 437.345
O/OREOS (USA 219) 28 May 20:17:12 20:21:26 42° 251° (WSW) 20:25:38 437.305
CUBEBUG 2 28 May 20:21:54 20:25:21 24° 63° (ENE) 20:28:45 437.445
CUBESAT XI-V 28 May 20:32:30 20:36:11 23° 300° (WNW) 20:39:50 437.345
CUSAT 1 28 May 20:35:01 20:38:27 13° 38° (NE) 20:41:45 437.405
CUTE-I 28 May 20:38:43 20:41:25 14° 275° (W) 20:44:08 437.470
DANDE 28 May 20:40:55 20:42:08 10° 32° (NNE) 20:43:20 436.750
STRAND 1 28 May 20:41:53 20:46:57 54° 101° (E) 20:52:00 437.568
BEESAT 2 28 May 20:44:07 20:48:09 82° 229° (SW) 20:52:08 435.950
UWE-3 28 May 20:47:32 20:51:12 29° 65° (ENE) 20:54:51 435.000/436.395/437.385
FUNcube-1 28 May 20:48:44 20:51:51 21° 62° (ENE) 20:54:57 145.935
CANX-2 28 May 20:53:24 20:57:35 62° 259° (W) 21:01:48 2200.000
SEEDS 28 May 20:53:28 20:57:39 89° 63° (ENE) 21:01:54 437.485
DOVE 4 28 May 20:55:41 21:00:03 27° 267° (W) 21:04:17 437.250
AUBIESAT-1 28 May 21:02:59 21:06:27 28° 257° (WSW) 21:09:43 437.475
M-CUBED/EXP-1 PRIME 28 May 21:11:20 21:14:23 20° 260° (W) 21:17:17 437.505
PCSat 28 May 21:12:35 21:14:14 11° 258° (WSW) 21:15:54 145.827
CINEMA 3 28 May 21:16:42 21:21:08 41° 262° (W) 21:25:24 145.822/145.860
BEESAT 3 28 May 21:16:54 21:20:16 27° 242° (WSW) 21:23:36 437.485
GONETS M04 28 May 21:17:26 21:24:12 26° 77° (ENE) 21:30:57
HO-68 28 May 21:19:52 21:26:46 50° 260° (W) 21:33:42 435.675
CUTE 1.7 + AOD 2 28 May 21:20:47 21:24:42 38° 263° (W) 21:28:41 437.475
AIST 2 28 May 21:26:17 21:30:02 31° 35° (NE) 21:33:46 435.215
Oscar 11 28 May 21:29:21 21:33:33 56° 71° (ENE) 21:37:48 145.826/435.025
Cosmos 2504 28 May 21:33:54 21:37:40 14° 316° (NW) 21:41:35 435.465 / 435.565
PRISM 28 May 21:35:48 21:39:42 35° 98° (E) 21:43:32 437.425
COMPASS 1 28 May 21:37:30 21:41:29 45° 261° (W) 21:45:32 437.405
AAUSAT CUBESAT 2 28 May 21:38:38 21:42:41 53° 260° (W) 21:46:47 437.432
RS-15 28 May 21:42:59 21:54:13 46° 343° (NNW) 22:05:57 29.354- 29.394
HUMSAT D 28 May 21:44:14 21:47:19 21° 62° (ENE) 21:50:25 437.325/437.525
ZACube-1 28 May 21:46:12 21:50:23 73° 75° (ENE) 21:54:33 437.345
AIST 1 28 May 21:47:45 21:52:01 51° 94° (E) 21:56:19
CUBEBUG 2 28 May 21:57:39 22:01:48 44° 262° (W) 22:05:53 437.445
DELFI C3 28 May 21:57:51 22:01:43 53° 71° (ENE) 22:05:38 145.870
Cosmos 2499 28 May 22:13:26 22:19:39 30° 81° (E) 22:26:14 435.465 / 435.565
CUSAT 1 28 May 22:15:42 22:23:08 41° 63° (ENE) 22:29:35 437.405
DANDE 28 May 22:20:53 22:28:07 31° 57° (ENE) 22:35:02 436.750
STRAND 1 28 May 22:21:34 22:25:52 27° 300° (WNW) 22:30:10 437.568
FUNcube-1 28 May 22:23:44 22:27:49 50° 260° (W) 22:31:53 145.935
UWE-3 28 May 22:23:44 22:27:38 34° 264° (W) 22:31:30 435.000/436.395/437.385
BEESAT 2 28 May 22:23:53 22:25:19 12° 250° (WSW) 22:26:45 435.950
ISS 28 May 22:29:22 22:32:13 28° 148° (SSE) 22:35:04 145.825
SEEDS 28 May 22:32:40 22:34:01 11° 274° (W) 22:35:23 437.485
AISAT 28 May 22:38:56 22:41:33 16° 56° (NE) 22:44:12 437.250
UKube-1 28 May 22:40:56 22:42:15 11° 52° (NE) 22:43:35 .
UNISAT 6 28 May 22:59:52 23:02:56 19° 91° (E) 23:06:01 437.425
AIST 2 28 May 23:04:41 23:08:43 49° 236° (SW) 23:12:43 435.215
TIGRISAT 28 May 23:06:49 23:10:03 20° 92° (E) 23:13:19 435.000
Oscar 11 28 May 23:07:01 23:10:03 19° 270° (W) 23:13:07 145.826/435.025
GONETS M04 28 May 23:11:11 23:20:00 85° 279° (W) 23:28:50
PRISM 28 May 23:11:18 23:14:55 28° 296° (WNW) 23:18:31 437.425
HUMSAT D 28 May 23:18:45 23:22:41 47° 261° (W) 23:26:40 437.325/437.525
ESTCUBE 1 28 May 23:20:45 23:25:02 43° 67° (ENE) 23:29:21 437.505/2401.250
ZACube-1 28 May 23:25:02 23:27:12 14° 272° (W) 23:29:22 437.345
CUBEBUG 1 28 May 23:26:30 23:30:32 35° 66° (ENE) 23:34:35 437.445
AIST 1 28 May 23:26:35 23:29:56 21° 294° (WNW) 23:33:19
DX 1 28 May 23:27:10 23:31:02 31° 64° (ENE) 23:34:56 434.975-435.025
DELFI C3 28 May 23:34:15 23:36:56 17° 270° (W) 23:39:37 145.870
VELOX 1 28 May 23:36:58 23:41:11 43° 68° (ENE) 23:45:26 145.980
ANTELSAT 28 May 23:40:20 23:44:27 43° 98° (E) 23:48:38 437.575/2403.000
PHONESAT 2.4 28 May 23:41:09 23:42:02 11° 169° (S) 23:42:55 2401.200-2431.200
SPROUT 28 May 23:47:40 23:51:10 25° 63° (ENE) 23:54:40 437.525
50 SAT 28 May 23:49:50 23:53:25 58° 71° (ENE) 23:57:03 437.505
CUSAT 1 28 May 23:57:56 00:05:37 56° 267° (W) 00:12:06 437.405
RS-15 28 May 23:58:30 00:10:02 46° 17° (NNE) 00:21:49 29.354- 29.394
DANDE 29 May 00:03:30 00:12:01 86° 260° (W) 00:19:52 436.750
POPSAT HIP 1 29 May 00:03:38 00:06:19 16° 90° (E) 00:09:00 437.405
QB50P1 29 May 00:03:51 00:06:36 17° 90° (E) 00:09:19 145.935-145.965
Cosmos 2499 29 May 00:04:47 00:12:07 67° 285° (WNW) 00:20:06 435.465 / 435.565
ISS 29 May 00:05:08 00:08:25 86° 164° (SSE) 00:11:42 145.825
QB50P2 29 May 00:06:29 00:09:29 19° 91° (E) 00:12:27 145.880/145.840
TISAT 1 29 May 00:08:05 00:10:18 14° 56° (ENE) 00:12:31 437.305
POLYITAN 1 29 May 00:08:56 00:11:57 19° 91° (E) 00:14:56 437.675
SO-50 29 May 00:12:17 00:15:18 16° 111° (ESE) 00:18:20 436.795
AISAT 29 May 00:12:58 00:17:27 86° 254° (WSW) 00:21:58 437.250
UKube-1 29 May 00:13:12 00:17:31 68° 71° (ENE) 00:21:51 .
NANOSAT C BR1 29 May 00:21:00 00:24:23 23° 93° (E) 00:27:44 145.865
JAS-2 29 May 00:23:53 00:25:26 11° 74° (ENE) 00:26:57 435.910
UNISAT 6 29 May 00:35:48 00:40:00 56° 289° (WNW) 00:44:15 437.425
TIGRISAT 29 May 00:42:53 00:47:02 50° 290° (WNW) 00:51:14 435.000
ESTCUBE 1 29 May 00:58:12 01:02:01 26° 267° (W) 01:05:52 437.505/2401.250
DUCHIFAT 1 29 May 00:58:27 01:02:32 49° 100° (E) 01:06:35 145.980
CUBEBUG 1 29 May 01:02:54 01:06:51 31° 265° (W) 01:10:50 437.445
DX 1 29 May 01:03:10 01:07:11 35° 263° (W) 01:11:15 434.975-435.025
BUGSAT 1 29 May 01:10:44 01:14:25 32° 96° (E) 01:18:03 437.445
GONETS M04 29 May 01:11:22 01:18:17 25° 305° (NW) 01:25:13
VELOX 1 29 May 01:14:06 01:17:50 26° 266° (W) 01:21:35 145.980
PHONESAT 2.4 29 May 01:16:36 01:17:58 12° 186° (S) 01:19:20 2401.200-2431.200
ANTELSAT 29 May 01:17:30 01:21:01 25° 297° (WNW) 01:24:33 437.575/2403.000
SPROUT 29 May 01:22:49 01:26:55 44° 261° (W) 01:31:03 437.525
50 SAT 29 May 01:25:38 01:27:32 14° 271° (W) 01:29:28 437.505
YUBILEINY 29 May 01:28:47 01:34:02 17° 45° (NE) 01:39:17 435.215
SWISSCUBE 29 May 01:29:58 01:33:41 23° 59° (ENE) 01:37:24 437.505
ITUPSAT 1 29 May 01:36:52 01:40:39 24° 59° (ENE) 01:44:26 437.325
POPSAT HIP 1 29 May 01:38:22 01:42:32 62° 288° (WNW) 01:46:40 437.405
QB50P1 29 May 01:38:37 01:42:47 60° 288° (WNW) 01:46:55 145.935-145.965
TISAT 1 29 May 01:41:08 01:45:22 87° 255° (WSW) 01:49:37 437.305
QB50P2 29 May 01:41:30 01:45:37 54° 290° (WNW) 01:49:43 145.880/145.840
ISS 29 May 01:41:39 01:44:56 81° 8° (N) 01:48:13 145.825
CUSAT 1 29 May 01:42:41 01:45:51 13° 290° (WNW) 01:48:51 437.405
POLYITAN 1 29 May 01:43:58 01:48:05 53° 290° (WNW) 01:52:10 437.675
DANDE 29 May 01:47:28 01:53:48 25° 281° (W) 01:59:49 436.750
SO-50 29 May 01:50:14 01:55:09 86° 130° (SE) 02:00:04 436.795
UKube-1 29 May 01:51:21 01:54:01 16° 270° (W) 01:56:43 .
AISAT 29 May 01:53:01 01:54:38 12° 274° (W) 01:56:16 437.250
NANOSAT C BR1 29 May 01:56:20 02:00:19 43° 292° (WNW) 02:04:16 145.865
BEESAT 29 May 01:58:44 02:03:02 35° 64° (ENE) 02:07:22 436.000
Cosmos 2499 29 May 02:02:12 02:07:09 18° 311° (NW) 02:12:20 435.465 / 435.565
JAS-2 29 May 02:05:06 02:12:29 51° 97° (E) 02:19:05 435.910
RS-15 29 May 02:12:06 02:24:26 83° 47° (NE) 02:36:51 29.354- 29.394
KKS-1 29 May 02:32:24 02:34:20 13° 53° (NE) 02:36:16 437.445
DUCHIFAT 1 29 May 02:34:46 02:37:57 21° 299° (WNW) 02:41:08 145.980
Cosmos 2491 29 May 02:37:11 02:40:05 12° 66° (ENE) 02:42:57 435.465 / 435.565
BUGSAT 1 29 May 02:46:14 02:49:45 28° 295° (WNW) 02:53:13 437.445
Oscar 19 29 May 02:55:36 03:00:43 57° 101° (E) 03:05:46 437.125/150
MOZHAYETS 4 29 May 02:57:56 03:00:41 16° 56° (ENE) 03:03:28
STARS 29 May 03:03:38 03:05:46 13° 54° (NE) 03:07:54 437.465
SWISSCUBE 29 May 03:06:26 03:11:08 59° 259° (WSW) 03:15:52 437.505
ITUPSAT 1 29 May 03:13:28 03:18:09 57° 259° (WSW) 03:22:54 437.325
ISS 29 May 03:18:10 03:21:17 42° 207° (SSW) 03:24:23 145.825
TISAT 1 29 May 03:20:33 03:21:42 11° 274° (W) 03:22:50 437.305
YUBILEINY 29 May 03:24:36 03:33:13 57° 72° (ENE) 03:41:51 435.215
Cosmos 2504 29 May 03:26:52 03:33:15 23° 55° (NE) 03:39:51 435.465 / 435.565
Gurwin Techsat 1B 29 May 03:30:43 03:35:56 52° 100° (E) 03:41:07 435.225
AO-7 29 May 03:31:25 03:35:41 15° 82° (E) 03:39:56 29.400- 29.500
SO-50 29 May 03:32:00 03:36:13 28° 332° (NNW) 03:40:24 436.795
BEESAT 29 May 03:36:28 03:40:50 35° 263° (W) 03:45:14 436.000
ITAMSAT 1 29 May 03:40:51 03:45:20 28° 94° (E) 03:49:47 435.822/435.867
JAS-2 29 May 03:50:18 03:57:23 43° 299° (WNW) 04:03:51 435.910
KKS-1 29 May 04:05:42 04:10:10 75° 73° (ENE) 04:14:39 437.445
RS-15 29 May 04:25:09 04:35:59 39° 252° (WSW) 04:46:49 29.354- 29.394
Cosmos 2491 29 May 04:26:17 04:34:43 53° 89° (E) 04:43:09 435.465 / 435.565
CUBESAT XI-V 29 May 04:27:24 04:30:20 17° 56° (NE) 04:33:16 437.345
MOZHAYETS 4 29 May 04:32:42 04:37:16 85° 257° (WSW) 04:41:53
Oscar 19 29 May 04:35:29 04:39:44 26° 301° (WNW) 04:43:58 437.125/150
STARS 29 May 04:37:02 04:41:27 82° 73° (ENE) 04:45:52 437.465
Gurwin Techsat 1B 29 May 05:11:06 05:15:39 30° 300° (WNW) 05:20:12 435.225
SO-50 29 May 05:15:09 05:18:14 16° 356° (N) 05:21:16 436.795
HORYU 2 29 May 05:19:17 05:22:09 17° 90° (E) 05:24:59 437.375
Cosmos 2504 29 May 05:19:38 05:28:02 80° 79° (ENE) 05:36:53 435.465 / 435.565
ITAMSAT 1 29 May 05:20:01 05:25:04 51° 293° (WNW) 05:30:07 435.822/435.867
YUBILEINY 29 May 05:21:50 05:29:47 41° 275° (W) 05:37:45 435.215
AO-7 29 May 05:21:57 05:30:16 62° 104° (ESE) 05:38:32 29.400- 29.500
JAS-2 29 May 05:36:59 05:40:28 14° 323° (NW) 05:43:49 435.910
AO-85 29 May 05:38:22 05:41:43 17° 110° (ESE) 05:45:01 145.980
KKS-1 29 May 05:44:41 05:47:17 15° 271° (W) 05:49:53 437.445
CUBESAT XI-V 29 May 06:02:24 06:07:06 85° 256° (WSW) 06:11:52 437.345
NOAA 15 29 May 06:12:13 06:14:44 13° 85° (E) 06:17:15 137.62
MOZHAYETS 4 29 May 06:13:29 06:15:11 12° 275° (W) 06:16:53
STARS 29 May 06:16:13 06:18:25 13° 272° (W) 06:20:36 437.465
BRITE-PL 29 May 06:17:08 06:18:59 12° 81° (E) 06:20:46 437.365/2234.400
Cosmos 2491 29 May 06:23:23 06:31:46 46° 292° (WNW) 06:40:11 435.465 / 435.565
Cubesat XI-IV 29 May 06:23:34 06:25:31 12° 84° (E) 06:27:27 437.490
STRAND 1 29 May 06:25:15 06:29:12 23° 58° (ENE) 06:33:10 437.568
NOAA 18 29 May 06:34:32 06:38:10 18° 89° (E) 06:41:46 137.9125
HORYU 2 29 May 06:54:46 06:59:11 67° 288° (WNW) 07:03:35 437.375
SO-50 29 May 06:56:43 07:00:25 21° 20° (NNE) 07:04:02 436.795
ITAMSAT 1 29 May 07:01:59 07:03:26 11° 313° (NW) 07:04:52 435.822/435.867
CUTE-I 29 May 07:07:23 07:11:57 27° 93° (E) 07:16:29 437.470
LilacSat-2 29 May 07:08:48 07:11:48 22° 93° (E) 07:14:48 437.200
Cosmos 2504 29 May 07:13:52 07:20:41 29° 280° (W) 07:27:44 435.465 / 435.565
AO-7 29 May 07:15:07 07:22:46 42° 306° (NW) 07:30:26 29.400- 29.500
AO-85 29 May 07:16:05 07:21:33 79° 129° (SE) 07:26:49 145.980
GONETS M04 29 May 07:19:13 07:25:00 19° 48° (NE) 07:30:45
CUBESAT XI-V 29 May 07:43:14 07:45:14 12° 275° (W) 07:47:15 437.345
AIST 1 29 May 07:49:51 07:53:22 23° 67° (ENE) 07:56:52
NOAA 15 29 May 07:50:04 07:55:25 79° 105° (ESE) 08:00:42 137.62
BRITE-PL 29 May 07:53:17 07:58:31 76° 103° (ESE) 08:03:18 437.365/2234.400
Cosmos 2499 29 May 07:56:19 08:02:07 19° 51° (NE) 08:08:04 435.465 / 435.565
Cubesat XI-IV 29 May 08:01:12 08:06:34 71° 103° (ESE) 08:11:56 437.490
STRAND 1 29 May 08:02:54 08:07:58 66° 257° (WSW) 08:13:05 437.568
GOMX 1 29 May 08:09:01 08:13:41 53° 99° (E) 08:18:01 467.674
NOAA 18 29 May 08:14:01 08:19:32 84° 288° (WNW) 08:25:02 137.9125
Cosmos 2491 29 May 08:27:34 08:31:34 13° 320° (NW) 08:35:34 435.465 / 435.565
PRISM 29 May 08:29:43 08:33:45 51° 70° (ENE) 08:37:50 437.425
HORYU 2 29 May 08:33:29 08:34:55 11° 308° (NW) 08:36:22 437.375
CANX-2 29 May 08:34:11 08:37:02 17° 89° (E) 08:39:51 2200.000
SEEDS 29 May 08:34:29 08:35:46 11° 86° (E) 08:37:03 437.485
SO-50 29 May 08:37:04 08:41:50 61° 44° (NE) 08:46:24 436.795
HO-68 29 May 08:41:57 08:47:53 27° 91° (E) 08:53:47 435.675
LilacSat-2 29 May 08:42:44 08:46:15 37° 291° (WNW) 08:49:45 437.200
M-CUBED/EXP-1 PRIME 29 May 08:46:27 08:47:23 11° 95° (E) 08:48:20 437.505
CUTE-I 29 May 08:47:05 08:52:17 53° 293° (WNW) 08:57:30 437.470
DOVE 4 29 May 08:48:50 08:53:15 62° 101° (E) 08:57:26 437.250
AO-85 29 May 08:57:46 09:02:34 31° 329° (NNW) 09:07:09 145.980
O/OREOS (USA 219) 29 May 08:58:08 08:59:45 12° 97° (E) 09:01:22 437.305
CUTE 1.7 + AOD 2 29 May 09:00:31 09:04:09 26° 93° (E) 09:07:48 437.475
CINEMA 3 29 May 09:06:16 09:09:58 30° 95° (E) 09:13:37 145.822/145.860
AO-7 29 May 09:09:01 09:13:26 16° 331° (NNW) 09:17:53 29.400- 29.500
ANTELSAT 29 May 09:10:56 09:12:12 11° 54° (NE) 09:13:29 437.575/2403.000
GONETS M04 29 May 09:15:15 09:23:56 65° 74° (ENE) 09:32:33
COMPASS 1 29 May 09:15:38 09:18:52 21° 91° (E) 09:22:04 437.405
AAUSAT CUBESAT 2 29 May 09:16:35 09:19:27 18° 90° (E) 09:22:17 437.432
AIST 1 29 May 09:27:03 09:31:12 44° 267° (W) 09:35:18
NOAA 15 29 May 09:30:45 09:34:38 21° 305° (NW) 09:38:29 137.62
BRITE-PL 29 May 09:32:39 09:36:22 20° 304° (NW) 09:39:53 437.365/2234.400
Cubesat XI-IV 29 May 09:42:03 09:46:11 23° 303° (WNW) 09:50:19 437.490
CUBEBUG 2 29 May 09:43:21 09:46:48 25° 93° (E) 09:50:16 437.445
STRAND 1 29 May 09:47:30 09:48:10 10° 277° (W) 09:48:49 437.568
GOMX 1 29 May 09:47:41 09:51:27 23° 300° (WNW) 09:55:00 467.674
Cosmos 2499 29 May 09:48:36 09:57:06 66° 75° (ENE) 10:05:55 435.465 / 435.565
NOAA 18 29 May 09:55:51 09:59:27 18° 308° (NW) 10:03:05 137.9125
UNISAT 6 29 May 10:03:21 10:07:08 30° 65° (ENE) 10:10:54 437.425
PRISM 29 May 10:06:18 10:09:22 20° 268° (W) 10:12:27 437.425
FUNcube-1 29 May 10:06:54 10:10:05 20° 92° (E) 10:13:16 145.935
UWE-3 29 May 10:07:46 10:11:29 30° 95° (E) 10:15:15 435.000/436.395/437.385
SEEDS 29 May 10:07:51 10:12:08 88° 105° (ESE) 10:16:24 437.485
CANX-2 29 May 10:09:02 10:13:18 62° 287° (WNW) 10:17:32 2200.000
TIGRISAT 29 May 10:10:08 10:14:00 33° 66° (ENE) 10:17:50 435.000
AUBIESAT-1 29 May 10:10:40 10:14:00 87° 111° (ESE) 10:17:20 437.475
PCSat 29 May 10:12:57 10:18:01 42° 116° (ESE) 10:23:08 145.827
SO-50 29 May 10:18:07 10:21:59 26° 244° (WSW) 10:25:45 436.795
M-CUBED/EXP-1 PRIME 29 May 10:19:09 10:22:25 59° 294° (WNW) 10:25:38 437.505
DUCHIFAT 1 29 May 10:22:56 10:24:06 11° 54° (NE) 10:25:15 145.980
DOVE 4 29 May 10:27:25 10:30:32 19° 301° (WNW) 10:33:31 437.250
HO-68 29 May 10:29:07 10:36:18 75° 292° (WNW) 10:43:27 435.675
CUTE-I 29 May 10:29:23 10:31:14 12° 313° (NW) 10:33:07 437.470
O/OREOS (USA 219) 29 May 10:33:50 10:38:24 83° 114° (ESE) 10:42:57 437.305
CUTE 1.7 + AOD 2 29 May 10:36:08 10:40:07 39° 292° (WNW) 10:44:07 437.475
AO-85 29 May 10:41:06 10:44:34 17° 352° (N) 10:47:54 145.980
JAS-2 29 May 10:41:11 10:45:00 15° 39° (NE) 10:48:50 435.910
CINEMA 3 29 May 10:43:25 10:47:09 32° 294° (WNW) 10:50:50 145.822/145.860
ANTELSAT 29 May 10:43:53 10:48:11 71° 74° (ENE) 10:52:28 437.575/2403.000
Oscar 11 29 May 10:47:22 10:51:40 58° 101° (E) 10:55:57 145.826/435.025
COMPASS 1 29 May 10:50:36 10:54:41 48° 290° (WNW) 10:58:46 437.405
AAUSAT CUBESAT 2 29 May 10:51:10 10:55:18 58° 289° (WNW) 10:59:26 437.432
HUMSAT D 29 May 10:57:29 11:00:30 19° 91° (E) 11:03:32 437.325/437.525
POPSAT HIP 1 29 May 11:00:39 11:04:06 24° 63° (ENE) 11:07:31 437.405
QB50P1 29 May 11:00:50 11:04:17 25° 63° (ENE) 11:07:44 145.935-145.965
QB50P2 29 May 11:03:40 11:07:16 27° 64° (ENE) 11:10:51 145.880/145.840
DELFI C3 29 May 11:05:14 11:09:07 44° 98° (E) 11:12:59 145.870
ZACube-1 29 May 11:05:23 11:09:35 78° 103° (ESE) 11:13:51 437.345
POLYITAN 1 29 May 11:06:08 11:09:43 28° 64° (ENE) 11:13:20 437.675
GONETS M04 29 May 11:12:41 11:20:17 35° 277° (W) 11:27:50
BEESAT 3 29 May 11:13:20 11:15:22 14° 112° (ESE) 11:17:24 437.485
NANOSAT C BR1 29 May 11:17:42 11:21:30 33° 66° (ENE) 11:25:18 145.865
CUBEBUG 2 29 May 11:19:42 11:23:35 39° 292° (WNW) 11:27:30 437.445
CUSAT 1 29 May 11:23:13 11:29:03 30° 82° (E) 11:35:36 437.405
DANDE 29 May 11:36:54 11:41:04 18° 74° (ENE) 11:45:48 436.750
UNISAT 6 29 May 11:39:52 11:43:49 34° 263° (W) 11:47:45 437.425
Cosmos 2499 29 May 11:42:16 11:49:49 36° 276° (W) 11:57:36 435.465 / 435.565
FUNcube-1 29 May 11:42:33 11:46:36 48° 290° (WNW) 11:50:41 145.935
UWE-3 29 May 11:44:16 11:47:59 32° 294° (WNW) 11:51:45 435.000/436.395/437.385
SEEDS 29 May 11:45:01 11:47:15 14° 303° (WNW) 11:49:27 437.485
TIGRISAT 29 May 11:46:53 11:50:43 31° 264° (W) 11:54:33 435.000
AUBIESAT-1 29 May 11:47:21 11:48:00 10° 310° (NW) 11:48:39 437.475
DUCHIFAT 1 29 May 11:54:51 11:59:03 71° 73° (ENE) 12:03:14 145.980
PCSat 29 May 11:56:15 12:01:27 45° 317° (NW) 12:06:41 145.827
AISAT 29 May 11:59:48 12:01:51 13° 87° (E) 12:03:53 437.250
BUGSAT 1 29 May 12:04:52 12:08:53 46° 69° (ENE) 12:12:52 437.445
O/OREOS (USA 219) 29 May 12:15:07 12:18:24 19° 317° (NW) 12:21:41 437.305
HO-68 29 May 12:17:50 12:22:59 22° 314° (NW) 12:28:08 435.675
BEESAT 2 29 May 12:18:12 12:21:46 33° 121° (ESE) 12:25:22 435.950
JAS-2 29 May 12:21:00 12:28:06 44° 61° (ENE) 12:35:26 435.910
ANTELSAT 29 May 12:22:57 12:25:24 15° 271° (W) 12:27:51 437.575/2403.000
AO-85 29 May 12:23:05 12:26:50 20° 17° (NNE) 12:30:23 145.980
Oscar 11 29 May 12:24:16 12:27:27 20° 299° (WNW) 12:30:37 145.826/435.025
HUMSAT D 29 May 12:32:23 12:36:26 51° 289° (WNW) 12:40:30 437.325/437.525
POPSAT HIP 1 29 May 12:35:39 12:39:41 43° 261° (W) 12:43:44 437.405
QB50P1 29 May 12:35:51 12:39:53 42° 262° (W) 12:43:56 145.935-145.965
Cosmos 2491 29 May 12:36:09 12:37:30 10° 33° (NNE) 12:38:51 435.465 / 435.565
QB50P2 29 May 12:39:00 12:42:57 38° 263° (W) 12:46:56 145.880/145.840
Oscar 19 29 May 12:39:36 12:43:45 25° 58° (ENE) 12:47:53 437.125/150
DELFI C3 29 May 12:40:36 12:43:46 22° 297° (WNW) 12:46:55 145.870
POLYITAN 1 29 May 12:41:31 12:45:26 37° 263° (W) 12:49:23 437.675
ZACube-1 29 May 12:42:59 12:45:23 15° 302° (WNW) 12:47:46 437.345
ESTCUBE 1 29 May 12:44:37 12:49:01 46° 99° (E) 12:53:24 437.505/2401.250
CUBEBUG 1 29 May 12:45:58 12:49:59 34° 96° (E) 12:53:57 437.445
DX 1 29 May 12:46:06 12:49:53 27° 95° (E) 12:53:35 434.975-435.025
50 SAT 29 May 12:47:54 12:51:23 36° 98° (E) 12:54:52 437.505
AO-7 29 May 12:48:01 12:51:56 14° 26° (NNE) 12:55:51 29.400- 29.500
BEESAT 3 29 May 12:48:32 12:52:30 85° 315° (NW) 12:56:28 437.485
NANOSAT C BR1 29 May 12:53:31 12:57:16 30° 265° (W) 13:01:00 145.865
VELOX 1 29 May 12:58:13 13:02:27 42° 98° (E) 13:06:38 145.980
CUSAT 1 29 May 13:03:32 13:10:27 74° 286° (WNW) 13:18:31 437.405
SPROUT 29 May 13:04:00 13:07:23 22° 92° (E) 13:10:43 437.525
DANDE 29 May 13:16:21 13:22:26 80° 99° (E) 13:30:14 436.750
Gurwin Techsat 1B 29 May 13:18:31 13:22:45 25° 58° (ENE) 13:26:59 435.225
TISAT 1 29 May 13:22:55 13:23:26 10° 86° (E) 13:23:57 437.305
ITAMSAT 1 29 May 13:27:31 13:30:10 14° 50° (NE) 13:32:49 435.822/435.867
UKube-1 29 May 13:31:12 13:35:31 61° 103° (ESE) 13:39:46 .
DUCHIFAT 1 29 May 13:32:54 13:35:14 14° 272° (W) 13:37:35 145.980
AISAT 29 May 13:34:31 13:38:58 85° 286° (WNW) 13:43:22 437.250
BUGSAT 1 29 May 13:41:14 13:44:28 21° 267° (W) 13:47:43 437.445
PCSat 29 May 13:42:34 13:46:15 18° 341° (NNW) 13:49:56 145.827
BEESAT 2 29 May 13:55:48 13:59:34 39° 320° (NW) 14:03:22 435.950
AO-85 29 May 14:03:36 14:08:26 53° 41° (NE) 14:12:49 145.980
JAS-2 29 May 14:05:32 14:12:56 56° 262° (W) 14:20:42 435.910
Oscar 19 29 May 14:17:32 14:22:41 63° 258° (WSW) 14:27:52 437.125/150
ESTCUBE 1 29 May 14:21:51 14:25:38 26° 298° (WNW) 14:29:24 437.505/2401.250
50 SAT 29 May 14:22:00 14:24:59 23° 296° (WNW) 14:27:56 437.505
DX 1 29 May 14:22:07 14:26:10 38° 294° (WNW) 14:30:12 434.975-435.025
CUBEBUG 1 29 May 14:22:21 14:26:15 32° 295° (WNW) 14:30:07 437.445
BEESAT 3 29 May 14:27:45 14:30:45 20° 332° (NNW) 14:33:46 437.485
Cosmos 2491 29 May 14:30:02 14:37:57 35° 62° (ENE) 14:45:45 435.465 / 435.565
VELOX 1 29 May 14:35:01 14:38:46 27° 297° (WNW) 14:42:28 145.980
AO-7 29 May 14:35:03 14:42:25 37° 51° (NE) 14:49:50 29.400- 29.500
SPROUT 29 May 14:39:29 14:43:34 45° 291° (WNW) 14:47:37 437.525
YUBILEINY 29 May 14:42:34 14:45:29 12° 66° (ENE) 14:48:24 435.215
AIST 2 29 May 14:44:21 14:48:27 65° 127° (SE) 14:52:34 435.215
CUSAT 1 29 May 14:48:34 14:54:07 22° 309° (NW) 15:00:08 437.405
TISAT 1 29 May 14:55:36 14:59:48 84° 105° (ESE) 15:03:58 437.305
Gurwin Techsat 1B 29 May 14:57:02 15:02:18 65° 258° (WSW) 15:07:37 435.225
DANDE 29 May 15:00:50 15:06:22 28° 305° (NW) 15:12:55 436.750
SWISSCUBE 29 May 15:01:47 15:05:44 25° 93° (E) 15:09:41 437.505
ITAMSAT 1 29 May 15:03:37 15:08:45 68° 71° (ENE) 15:13:56 435.822/435.867
UKube-1 29 May 15:08:04 15:11:10 20° 301° (WNW) 15:14:16 .
ITUPSAT 1 29 May 15:09:04 15:13:06 26° 93° (E) 15:17:06 437.325
AISAT 29 May 15:12:31 15:14:46 14° 306° (NW) 15:17:02 437.250
PCSat 29 May 15:28:44 15:31:51 15° 8° (N) 15:34:57 145.827
BEESAT 29 May 15:30:55 15:35:26 40° 98° (E) 15:39:56 436.000
BEESAT 2 29 May 15:36:14 15:38:27 14° 343° (NNW) 15:40:40 435.950
AO-85 29 May 15:44:34 15:48:40 29° 244° (WSW) 15:52:26 145.980
JAS-2 29 May 15:56:30 15:59:45 13° 284° (WNW) 16:03:02 435.910
BEESAT 3 29 May 16:08:38 16:09:54 11° 356° (N) 16:11:09 437.485
Cosmos 2504 29 May 16:17:59 16:20:03 11° 67° (ENE) 16:22:09 435.465 / 435.565
HORYU 2 29 May 16:21:44 16:25:32 29° 63° (ENE) 16:29:22 437.375
MOZHAYETS 4 29 May 16:23:34 16:26:32 17° 88° (E) 16:29:31
AIST 2 29 May 16:23:44 16:27:17 27° 328° (NNW) 16:30:51 435.215
STARS 29 May 16:24:16 16:24:53 10° 85° (E) 16:25:31 437.465
AO-7 29 May 16:26:28 16:34:44 70° 254° (WSW) 16:43:06 29.400- 29.500
Cosmos 2491 29 May 16:26:49 16:35:29 68° 267° (W) 16:44:06 435.465 / 435.565
NOAA 18 29 May 16:29:02 16:31:03 12° 46° (NE) 16:33:05 137.9125
YUBILEINY 29 May 16:31:48 16:40:07 54° 90° (E) 16:48:28 435.215
TISAT 1 29 May 16:32:39 16:34:53 14° 303° (WNW) 16:37:07 437.305
SWISSCUBE 29 May 16:39:09 16:43:48 50° 292° (WNW) 16:48:26 437.505
Gurwin Techsat 1B 29 May 16:42:20 16:43:19 10° 277° (W) 16:44:20 435.225
RS-15 29 May 16:44:03 16:53:06 29° 102° (ESE) 17:02:29 29.354- 29.394
ITAMSAT 1 29 May 16:44:56 16:48:44 20° 270° (W) 16:52:35 435.822/435.867
ITUPSAT 1 29 May 16:46:32 16:51:10 48° 292° (WNW) 16:55:48 437.325
CUTE-I 29 May 16:57:18 17:00:11 15° 50° (NE) 17:03:05 437.470
BEESAT 29 May 17:08:54 17:13:09 32° 297° (WNW) 17:17:22 436.000
PCSat 29 May 17:12:24 17:17:06 28° 33° (NNE) 17:21:46 145.827
BEESAT 2 29 May 17:16:26 17:17:56 12° 7° (N) 17:19:25 435.950
O/OREOS (USA 219) 29 May 17:21:41 17:23:42 13° 35° (NE) 17:25:43 437.305
KKS-1 29 May 17:28:01 17:32:29 75° 104° (ESE) 17:36:54 437.445
BRITE-PL 29 May 17:30:43 17:35:26 28° 60° (ENE) 17:40:07 437.365/2234.400
HO-68 29 May 17:34:34 17:36:35 11° 32° (NNE) 17:38:36 435.675
NOAA 15 29 May 17:36:13 17:41:02 36° 63° (ENE) 17:45:52 137.62
GOMX 1 29 May 17:45:05 17:48:49 19° 57° (ENE) 17:52:28 467.674
BEESAT 3 29 May 17:46:47 17:49:11 15° 20° (NNE) 17:51:35 437.485
Cubesat XI-IV 29 May 17:49:17 17:53:59 33° 62° (ENE) 17:58:42 437.490
CUBESAT XI-V 29 May 17:54:47 17:58:00 18° 89° (E) 18:01:09 437.345
LilacSat-2 29 May 17:55:43 17:58:46 23° 64° (ENE) 18:01:49 437.200
STARS 29 May 17:57:37 18:02:01 79° 104° (ESE) 18:06:23 437.465
HORYU 2 29 May 17:57:52 18:02:00 38° 262° (W) 18:06:10 437.375
MOZHAYETS 4 29 May 17:59:36 18:04:14 71° 286° (WNW) 18:08:51
Cosmos 2504 29 May 18:04:22 18:11:26 55° 91° (E) 18:18:59 435.465 / 435.565
AIST 2 29 May 18:05:11 18:07:06 13° 351° (N) 18:09:02 435.215
NOAA 18 29 May 18:05:18 18:10:35 53° 67° (ENE) 18:15:54 137.9125
DOVE 4 29 May 18:22:39 18:26:13 20° 59° (ENE) 18:29:39 437.250
AO-7 29 May 18:24:01 18:29:07 17° 276° (W) 18:34:15 29.400- 29.500
Cosmos 2491 29 May 18:25:38 18:30:36 17° 290° (WNW) 18:35:33 435.465 / 435.565
YUBILEINY 29 May 18:28:58 18:37:10 44° 293° (WNW) 18:45:26 435.215
CUTE-I 29 May 18:34:05 18:39:21 70° 70° (ENE) 18:44:40 437.470
RS-15 29 May 18:52:20 19:03:49 84° 128° (SE) 19:16:00 29.354- 29.394
BEESAT 2 29 May 18:53:54 18:57:09 23° 30° (NNE) 19:00:24 435.950
PCSat 29 May 18:55:38 19:01:06 81° 235° (SW) 19:06:32 145.827
O/OREOS (USA 219) 29 May 18:59:44 19:04:10 55° 57° (ENE) 19:08:34 437.305
KKS-1 29 May 19:05:39 19:08:32 17° 303° (WNW) 19:11:24 437.445
BRITE-PL 29 May 19:07:53 19:13:32 64° 260° (W) 19:19:09 437.365/2234.400
